Location: Hartford
(41.7640°N, 72.6860°W)
Time: 12:04:54
(UTC-04:00)

ISS - Visible Passes

Search period start: 22 May 2015 00:00
Search period end: 01 June 2015 00:00
Orbit: 399 x 404 km, 51.6° (Epoch: 22 May)

Date Brightness Start Highest point End Pass type
(mag) Time Alt. Az. Time Alt. Az. Time Alt. Az.
22 May -1.1 02:07:04 24° NE 02:07:04 24° NE 02:08:31 10° NE visible
22 May -1.0 03:39:38 11° WNW 03:42:02 20° NNW 03:44:35 10° NE visible
23 May -1.6 02:48:09 26° NW 02:48:39 28° NNW 02:51:31 10° NE visible
23 May -0.5 04:23:55 10° NW 04:25:51 15° N 04:27:48 10° NNE visible
24 May -1.2 01:56:36 27° NNE 01:56:36 27° NNE 01:58:26 10° NE visible
24 May -0.5 03:30:12 10° NW 03:32:21 16° N 03:34:29 10° NNE visible
25 May -0.2 01:04:58 12° NE 01:04:58 12° NE 01:05:16 10° NE visible
25 May -0.9 02:37:32 16° NW 02:38:51 19° NNW 02:41:18 10° NNE visible
25 May -0.4 04:14:12 10° NNW 04:16:10 15° N 04:18:09 10° NE visible
26 May -1.1 01:45:49 24° N 01:45:49 24° N 01:48:09 10° NE visible
26 May -0.3 03:20:41 10° NW 03:22:35 14° N 03:24:31 10° NE visible
27 May -0.6 00:54:00 17° NE 00:54:00 17° NE 00:54:59 10° NE visible
27 May -0.3 02:26:56 10° NW 02:29:00 16° N 02:31:04 10° NNE visible
27 May -0.4 04:04:03 10° NNW 04:06:21 17° NNE 04:08:39 10° ENE visible
28 May -0.7 01:34:34 17° NW 01:35:24 18° NNW 01:37:46 10° NNE visible
28 May -0.2 03:10:44 10° NNW 03:12:45 15° N 03:14:46 10° NE visible
28 May -1.5 04:46:50 10° NW 04:49:51 34° NNE 04:52:54 10° E visible
29 May -0.8 00:42:21 23° N 00:42:21 23° N 00:44:33 10° NE visible
29 May -0.1 02:17:11 10° NW 02:19:05 14° N 02:21:00 10° NE visible
29 May -0.8 03:53:38 10° NW 03:56:21 24° NNE 03:59:05 10° ENE visible
29 May -1.2 23:49:32 25° NNE 23:49:32 25° NNE 23:51:19 10° NE visible
30 May -0.1 01:23:24 10° NW 01:25:25 15° N 01:27:25 10° NNE visible
30 May -0.3 03:00:22 10° NNW 03:02:45 18° NNE 03:05:07 10° ENE visible
30 May -2.9 04:36:22 10° NW 04:39:37 67° NNE 04:42:52 10° ESE visible
30 May -1.8 21:16:34 10° S 21:18:40 16° SE 21:20:51 10° E visible
30 May -2.8 22:51:36 10° WSW 22:54:49 57° NNW 22:58:01 10° NE visible
31 May -0.3 00:29:27 10° WNW 00:31:44 17° NNW 00:34:01 10° NNE visible
31 May -0.1 02:07:00 10° NNW 02:09:04 16° N 02:11:08 10° NE visible
31 May -1.7 03:43:03 10° NW 03:46:09 38° NNE 03:49:13 10° E visible
31 May -3.5 21:58:08 10° SW 22:01:22 75° SE 22:04:37 10° ENE visible
31 May -0.7 23:35:26 10° WNW 23:38:04 22° NNW 23:40:42 10° NE visible
